Anderson, CA

2:08 PM PST on February 14, 2016 (GMT -0800)
Redding Municipal

Weather History for KRDD - January, 2013

Change the Weather History Date:

Thursday, January 17, 2013

  Actual Average Record
Temperature  
Mean Temperature 50 °F -  
Max Temperature 71 °F 55 °F 77 °F (1994)
Min Temperature 28 °F 37 °F 16 °F (2012)
Degree Days  
Heating Degree Days 15    
Cooling Degree Days 0    
Moisture  
Dew Point 22 °F    
Average Humidity 48    
Maximum Humidity 85    
Minimum Humidity 11    
Precipitation  
Precipitation 0.00 in 0.19 in 1.28 in (2016)
Month to date precipitation 0.13 3.38  
Year to date precipitation 0.13 3.38  
Since 1 July precipitation 19.29  
Sea Level Pressure  
Sea Level Pressure 30.23 in    
Wind  
Wind Speed 5 mph (NNE)    
Max Wind Speed 23 mph    
Max Gust Speed 26 mph    
Visibility 10 miles    
Events      
T = Trace of Precipitation, MM = Missing Value Source: NWS Daily Summary

Daily Weather History Graph

Daily Weather History Graph

Search for Another Location

Airport or City:

Trip Planner

Search our weather history database for the weather conditions in past years. The results will help you decide how hot, cold, wet, or windy it might be!

Date:

Astronomy

Jan. 17, 2013 Rise Set
Actual Time 7:29 AM PST 5:09 PM PST
Civil Twilight 6:59 AM PST 5:39 PM PST
Nautical Twilight 6:26 AM PST 6:13 PM PST
Astronomical Twilight 5:53 AM PST 6:45 PM PST
Moon 10:37 AM PST (1/17) No Moon Set
Length of Visible Light 10h 40m
Length of Day
9h 40m
Waxing Crescent, 39% of the Moon is Illuminated
Jan 17
Waxing Crescent
Jan 18
First Quarter
Jan 26
Full
Feb 3
Last Quarter
Feb 9
New

Hourly Weather History & Observations

Time (PST) Temp. Windchill Dew Point Humidity Pressure Visibility Wind Dir Wind Speed Gust Speed Precip Events Conditions
12:53 AM 34.0 °F - 27.0 °F 75% 30.30 in 10.0 mi Calm Calm - N/A   Clear
1:53 AM 32.0 °F - 27.0 °F 82% 30.30 in 8.0 mi Calm Calm - N/A   Clear
2:53 AM 30.9 °F - 26.1 °F 82% 30.29 in 10.0 mi Calm Calm - N/A   Clear
3:53 AM 28.4 °F 24.6 °F 24.8 °F 86% 30.28 in 9.0 mi SSE 3.5 mph - N/A   Clear
4:53 AM 30.0 °F 24.1 °F 24.1 °F 79% 30.26 in 9.0 mi SE 5.8 mph - N/A   Clear
5:53 AM 55.0 °F - 14.0 °F 20% 30.25 in 10.0 mi North 6.9 mph - N/A   Clear
6:53 AM 30.0 °F 26.5 °F 23.0 °F 75% 30.26 in 10.0 mi SSE 3.5 mph - N/A   Clear
7:53 AM 30.0 °F - 23.0 °F 75% 30.27 in 10.0 mi Calm Calm - N/A   Clear
8:53 AM 36.0 °F - 28.0 °F 73% 30.28 in 10.0 mi Calm Calm - N/A   Clear
9:53 AM 46.0 °F 43.9 °F 32.0 °F 58% 30.28 in 10.0 mi South 4.6 mph - N/A   Clear
10:53 AM 64.9 °F - 16.0 °F 15% 30.25 in 10.0 mi NNE 18.4 mph - N/A   Clear
11:53 AM 68.0 °F - 15.1 °F 13% 30.22 in 10.0 mi NNE 20.7 mph - N/A   Clear
12:53 PM 70.0 °F - 16.0 °F 13% 30.19 in 10.0 mi NNE 19.6 mph - N/A   Clear
1:53 PM 71.1 °F - 14.0 °F 11% 30.16 in 10.0 mi North 13.8 mph - N/A   Clear
2:53 PM 71.1 °F - 16.0 °F 12% 30.15 in 10.0 mi NNE 13.8 mph - N/A   Clear
3:53 PM 70.0 °F - 16.0 °F 13% 30.15 in 10.0 mi NNE 15.0 mph - N/A   Clear
4:53 PM 66.0 °F - 15.1 °F 14% 30.15 in 10.0 mi NNE 13.8 mph - N/A   Clear
5:53 PM 60.1 °F - 16.0 °F 18% 30.17 in 10.0 mi North 9.2 mph - N/A   Clear
6:53 PM 61.0 °F - 12.9 °F 15% 30.18 in 10.0 mi North 6.9 mph - N/A   Clear
7:53 PM 46.9 °F - 32.0 °F 56% 30.21 in 10.0 mi Calm Calm - N/A   Clear
8:53 PM 44.1 °F - 28.9 °F 55% 30.22 in 10.0 mi Calm Calm - N/A   Clear
9:53 PM 37.9 °F - 28.0 °F 68% 30.22 in 10.0 mi Calm Calm - N/A   Clear
10:53 PM 36.0 °F - 28.0 °F 73% 30.22 in 10.0 mi Calm Calm - N/A   Clear
11:53 PM 34.0 °F - 27.0 °F 75% 30.22 in 10.0 mi Calm Calm - N/A   Clear